DW5338 Weather Reports


Display with metric or nautical units.
time (UTC)temp
F
wind
direction
speed
MPH
gust
MPH
rain 1hr
in
rain 24hr
in
rain mn
in
humidity
%
barometer
mb
20260507161519 40 158 6.0 17.0 0.00 0.31 0.01 55 1018.9
20260507160539 40 158 6.0 10.0 0.00 0.31 0.01 56 1019.1
20260507155516 39 158 6.0 13.0 0.00 0.31 0.01 58 1019.5
20260507154515 39 158 7.0 18.0 0.00 0.31 0.01 58 1019.6
20260507153515 39 180 9.0 22.0 0.00 0.31 0.01 53 1019.6
20260507152515 39 180 12.0 21.0 0.00 0.31 0.01 55 1019.5
20260507151518 38 225 9.0 23.0 0.00 0.31 0.01 55 1019.4
20260507150515 38 225 9.0 17.0 0.00 0.31 0.01 57 1019.9
20260507145515 39 248 10.0 15.0 0.00 0.31 0.01 59 1019.7
20260507144515 40 248 9.0 18.0 0.00 0.31 0.01 56 1019.4
20260507143516 40 248 6.0 12.0 0.01 0.31 0.01 58 1019.6
20260507142519 39 225 6.0 11.0 0.01 0.31 0.01 59 1019.0
20260507141516 39 225 8.0 16.0 0.01 0.31 0.01 57 1019.3
20260507140518 40 225 9.0 16.0 0.01 0.31 0.01 56 1019.4
20260507135519 39 225 7.0 15.0 0.01 0.31 0.01 58 1019.3
20260507134535 39 225 8.0 15.0 0.01 0.31 0.01 58 1019.3
20260507133515 40 225 8.0 16.0 0.00 0.30 0.00 56 1019.7
20260507132515 39 225 7.0 17.0 0.00 0.30 0.00 58 1019.7
20260507131519 38 248 8.0 16.0 0.00 0.30 0.00 58 1019.3
20260507130515 36 225 9.0 20.0 0.00 0.30 0.00 59 1019.3
20260507125515 36 225 10.0 17.0 0.00 0.30 0.00 59 1019.3
20260507124520 35 180 5.0 16.0 0.00 0.30 0.00 63 1019.1
20260507123515 34 180 4.0 8.0 0.00 0.30 0.00 63 1019.1
20260507122515 35 225 3.0 12.0 0.00 0.30 0.00 62 1018.9
20260507121518 35 203 6.0 10.0 0.00 0.30 0.00 58 1019.0
20260507120519 35 225 8.0 16.0 0.00 0.30 0.00 56 1019.1
20260507115519 36 225 11.0 22.0 0.00 0.30 0.00 55 1018.7
20260507114518 35 248 6.0 15.0 0.00 0.30 0.00 59 1018.8
20260507113518 35 225 6.0 11.0 0.00 0.30 0.00 58 1018.7
20260507112518 34 225 5.0 11.0 0.00 0.30 0.00 60 1018.6
20260507111515 34 270 5.0 10.0 0.00 0.30 0.00 62 1018.7
20260507110518 34 225 5.0 11.0 0.00 0.30 0.00 60 1018.4
20260507105519 35 248 6.0 10.0 0.00 0.30 0.00 59 1018.4
20260507104518 35 225 7.0 12.0 0.00 0.30 0.00 57 1018.3
20260507103515 35 180 9.0 17.0 0.00 0.30 0.00 57 1018.4
20260507102515 35 203 8.0 16.0 0.00 0.30 0.00 58 1018.3
20260507101535 35 225 8.0 19.0 0.00 0.30 0.00 55 1018.3
20260507100517 35 203 9.0 16.0 0.00 0.30 0.00 55 1018.4
20260507095557 35 180 7.0 18.0 0.00 0.30 0.00 55 1018.4
20260507094520 35 180 7.0 15.0 0.00 0.30 0.00 57 1018.5
20260507093520 35 203 6.0 12.0 0.00 0.30 0.00 56 1018.4
20260507092520 34 180 6.0 14.0 0.00 0.30 0.00 56 1018.2
20260507091516 34 180 10.0 19.0 0.00 0.30 0.00 55 1018.2
20260507090520 33 203 8.0 19.0 0.00 0.30 0.00 59 1018.1
20260507085520 33 180 5.0 14.0 0.00 0.30 0.00 59 1018.0
20260507084520 33 180 6.0 14.0 0.00 0.30 0.00 58 1018.0
20260507083517 33 203 6.0 14.0 0.00 0.30 0.00 59 1018.0
20260507082537 33 158 1.0 4.0 0.00 0.30 0.00 58 1018.0
20260507081517 33 180 6.0 12.0 0.00 0.30 0.00 58 1018.0
20260507080537 33 203 6.0 10.0 0.00 0.30 0.00 57 1018.1
20260507075540 33 203 9.0 16.0 0.00 0.30 0.00 57 1018.3
20260507074520 32 180 7.0 16.0 0.00 0.30 0.00 55 1018.4
20260507073520 33 203 6.0 13.0 0.00 0.30 0.00 54 1018.6
20260507072520 33 203 6.0 14.0 0.00 0.30 0.00 51 1018.8
20260507071520 34 225 6.0 11.0 0.00 0.30 0.00 48 1018.5
20260507070540 36 270 9.0 29.0 0.00 0.30 0.00 41 1018.7
20260507065540 36 270 11.0 27.0 0.00 0.30 0.00 46 1018.4
20260507064540 35 225 8.0 23.0 0.00 0.30 0.00 45 1018.2
20260507063520 33 203 6.0 11.0 0.00 0.30 0.00 54 1018.2
20260507062600 33 203 5.0 11.0 0.00 0.30 0.00 55 1018.2
20260507061520 32 225 4.0 11.0 0.00 0.30 0.00 54 1018.4
20260507060516 33 225 4.0 12.0 0.00 0.30 0.00 55 1018.5
20260507055517 33 225 7.0 11.0 0.00 0.30 0.30 54 1018.1
20260507054516 33 248 9.0 17.0 0.00 0.30 0.30 56 1018.1
20260507053536 33 270 11.0 22.0 0.00 0.30 0.30 58 1018.4
20260507052517 31 203 8.0 17.0 0.00 0.30 0.30 64 1017.8
20260507051536 30 225 9.0 18.0 0.00 0.30 0.30 65 1017.6
20260507050516 30 225 8.0 15.0 0.00 0.30 0.30 66 1017.5
20260507045520 30 225 8.0 18.0 0.00 0.30 0.30 66 1017.6
20260507044519 30 203 7.0 16.0 0.00 0.30 0.30 67 1017.5
20260507043540 30 225 8.0 14.0 0.00 0.30 0.30 65 1017.4
20260507042540 30 203 8.0 14.0 0.00 0.30 0.30 66 1017.5
20260507041516 30 203 8.0 15.0 0.00 0.30 0.30 65 1017.7
20260507035516 30 203 7.0 12.0 0.00 0.30 0.30 65 1017.6
20260507034520 30 203 4.0 9.0 0.00 0.30 0.30 67 1017.5
20260507033519 31 225 3.0 8.0 0.00 0.30 0.30 67 1017.5
20260507032520 31 248 6.0 16.0 0.00 0.30 0.30 64 1017.5
20260507031520 31 248 5.0 15.0 0.00 0.30 0.30 65 1017.6
20260507030519 31 203 6.0 11.0 0.00 0.30 0.30 64 1017.4
20260507025520 32 225 7.0 16.0 0.00 0.30 0.30 63 1017.3
20260507024516 32 270 11.0 19.0 0.00 0.30 0.30 62 1017.5
20260507023516 32 248 8.0 18.0 0.00 0.30 0.30 62 1017.4
20260507022516 32 270 6.0 11.0 0.00 0.30 0.30 63 1017.0
20260507021536 32 248 6.0 13.0 0.00 0.30 0.30 65 1016.9
20260507020516 32 270 8.0 13.0 0.00 0.30 0.30 67 1016.7
20260507015522 32 248 6.0 10.0 0.01 0.30 0.30 68 1016.7
20260507014516 32 248 7.0 14.0 0.01 0.30 0.30 70 1016.7
20260507013516 33 248 7.0 13.0 0.02 0.30 0.30 69 1016.6
20260507012522 34 270 5.0 8.0 0.03 0.30 0.30 69 1016.7
20260507011536 35 270 6.0 15.0 0.04 0.30 0.30 67 1017.1
20260507010520 35 270 6.0 11.0 0.05 0.30 0.30 69 1017.2
20260507005519 36 248 4.0 8.0 0.05 0.29 0.29 76 1017.2
20260507004521 36 270 2.0 7.0 0.06 0.29 0.29 76 1017.1
20260507003516 36 270 3.0 10.0 0.05 0.28 0.28 78 1017.1
20260507002519 35 0.0 2.0 0.05 0.27 0.27 85 1017.2
20260507001516 34 338 2.0 4.0 0.05 0.26 0.26 89 1017.1
20260507000516 33 113 1.0 4.0 0.06 0.25 0.25 90 1017.1
20260506235539 33 68 1.0 4.0 0.05 0.25 0.24 91 1017.1
20260506234516 32 338 3.0 8.0 0.05 0.24 0.23 90 1016.9
20260506233516 32 23 3.0 8.0 0.05 0.24 0.23 89 1016.9
20260506232519 32 45 2.0 6.0 0.06 0.23 0.22 90 1016.7
20260506230519 32 90 1.0 3.0 0.04 0.20 0.19 88 1016.5
20260506225519 32 45 2.0 4.0 0.05 0.20 0.19 88 1016.5
20260506224516 32 113 1.0 3.0 0.04 0.19 0.18 88 1016.6
20260506223515 31 113 1.0 3.0 0.05 0.19 0.18 87 1016.6
20260506222519 32 68 1.0 4.0 0.03 0.17 0.16 88 1016.8
20260506221519 30 45 2.0 3.0 0.04 0.17 0.16 88 1016.4
20260506220519 30 23 1.0 2.0 0.04 0.16 0.15 90 1016.6
20260506215519 29 113 1.0 3.0 0.03 0.17 0.14 90 1016.7
20260506214536 29 113 1.0 4.0 0.04 0.17 0.14 90 1016.9
20260506213516 29 113 1.0 4.0 0.04 0.16 0.13 90 1016.9
20260506212516 28 68 2.0 6.0 0.04 0.16 0.13 92 1017.0
20260506211516 27 45 3.0 5.0 0.04 0.15 0.12 90 1016.8
20260506210521 28 45 4.0 9.0 0.03 0.14 0.11 89 1017.0
20260506205536 28 23 2.0 6.0 0.03 0.19 0.11 89 1017.0
20260506204516 29 90 2.0 7.0 0.03 0.18 0.10 91 1017.1
20260506203521 27 23 4.0 7.0 0.03 0.17 0.09 88 1016.9
20260506202516 28 45 2.0 5.0 0.04 0.17 0.09 91 1017.2
20260506201516 27 23 3.0 6.0 0.03 0.16 0.08 89 1017.0
20260506200521 28 45 3.0 5.0 0.05 0.16 0.08 88 1017.1
20260506195515 27 68 2.0 5.0 0.06 0.16 0.08 90 1017.3
20260506194516 27 68 2.0 4.0 0.06 0.15 0.07 88 1017.3
20260506193515 27 45 3.0 7.0 0.05 0.14 0.06 88 1017.3
20260506192519 28 90 2.0 6.0 0.04 0.13 0.05 88 1017.3
20260506191519 27 45 2.0 5.0 0.05 0.13 0.05 89 1017.3
20260506190519 29 68 2.0 5.0 0.03 0.11 0.03 88 1017.6
20260506185519 28 68 2.0 6.0 0.02 0.10 0.02 88 1017.5
20260506184519 28 90 1.0 4.0 0.01 0.09 0.01 88 1017.6
20260506183519 28 90 3.0 7.0 0.01 0.09 0.01 86 1017.6
20260506182519 28 68 3.0 9.0 0.01 0.09 0.01 87 1017.7
20260506181519 29 45 4.0 10.0 0.00 0.08 0.00 85 1017.7
20260506180519 28 45 2.0 6.0 0.00 0.08 0.00 88 1017.7
20260506175516 26 90 2.0 5.0 0.00 0.08 0.00 89 1017.5
20260506174536 25 45 3.0 8.0 0.00 0.08 0.00 90 1017.5
20260506173535 25 68 4.0 10.0 0.00 0.08 0.00 89 1017.5
20260506172519 25 23 3.0 10.0 0.00 0.08 0.00 91 1017.5
20260506171539 24 68 2.0 8.0 0.00 0.08 0.00 92 1017.1
20260506170541 23 68 5.0 10.0 0.00 0.08 0.00 91 1017.1
20260506165536 23 68 5.0 10.0 0.00 0.08 0.00 91 1017.0
20260506164515 23 68 5.0 10.0 0.00 0.08 0.00 92 1016.9
20260506163519 23 68 2.0 8.0 0.00 0.08 0.00 93 1016.8
20260506162519 22 23 3.0 6.0 0.00 0.08 0.00 92 1016.5